Regional Weather Roundup
Issued by NWS New Orleans/Baton Rouge, LA

Home | Current Version | Previous Version | Graphics & Text | Print | Product List | Glossary On
Versions: 1 2 3 4 5 6 7 8 9 10 11 12 13 14 15 16 17 18 19 20 21 22 23 24 25 26 27 28 29 30 31 32 33 34 35 36 37 38 39 40 41 42 43 44 45 46 47 48 49 50
623
ASUS44 KLIX 252310
RWRLIX
NEW ORLEANS REGIONAL WEATHER ROUNDUP
NATIONAL WEATHER SERVICE NEW ORLEANS LA
500 PM CST TUE NOV 25 2014

NOTE: "FAIR" INDICATES FEW OR NO CLOUDS BELOW 12,000 FEET WITH NO
      SIGNIFICANT WEATHER AND/OR OBSTRUCTIONS TO VISIBILITY.
      SKY/WX - SKY CONDITION AND SIGNIFICANT WEATHER.
      TMP - AIR TEMPERATURE.     DP    - DEWPOINT TEMPERATURE.
      RH  - RELATIVE HUMIDITY.   PRES  - PRESSURE.
      HI  - HEAT INDEX.          WCI   - WIND CHILL INDEX.

*  THESE STATIONS ARE NOT NWS OR FAA STATIONS AND ARE NOT UNDER
   NWS QUALITY CONTROL.

LAZ038-040-048-061>063-065>067-069-260000-
SOUTHEAST LOUISIANA

CITY           SKY/WX    TMP DP  RH WIND       PRES   REMARKS
N.O. AUDUBON   NOT AVBL
N.O. INTL ARPT CLOUDY    54  33  45 N8        30.14F
N.O. LAKEFRONT CLOUDY    56  33  42 N12       30.13F
N.O. DOWNTOWN* CLOUDY    55  30  38 N5        30.14F
SLIDELL        CLOUDY    51  38  60 NE3       30.13F
BATON ROUGE    CLOUDY    51  29  42 N3        30.19R
BOOTHVILLE     CLOUDY    56  38  50 N17G24    30.14R
BELLE CHASSE   CLOUDY    55  31  39 N6        30.14S
BOGALUSA*        N/A     51  39  62 NW3       30.17S
NEW ROADS*       N/A     51  32  48 NW7       30.21R
GONZALES*        N/A     53  31  42 NW10      30.18R
HAMMOND*       CLOUDY    52  34  50 NW8       30.18R
HOUMA*         NOT AVBL
PORT FOURCHON* CLOUDY    55  34  44 N10G16    30.17F

$$

MSZ070-080>082-260000-
SOUTHERN MISSISSIPPI

CITY           SKY/WX    TMP DP  RH WIND       PRES   REMARKS
MCCOMB         CLOUDY    49  31  49 N3        30.17S
GULFPORT       CLOUDY    53  36  52 NW8       30.11F
BILOXI         CLOUDY    54  36  49 N10       30.11F
PASCAGOULA     CLOUDY    54  36  50 NW8       30.10F
STENNIS ARPT*  CLOUDY    52  34  50 N5        30.14S

$$

COASTAL OBSERVATIONS
LAKE AND NEARSHORE STATIONS

STATION/POSITION TIME  TEMP    WIND        PRES    WAVE
                       AIR SEA DIR/SP/G            HT/PER
                 (UTC) (F)     (DEG/KT/KT) (MB)    (FT/S)
PASCAGOULA       2300   55     330/  9/ 17 1018.6
WAVELAND YACHT   2300   54     340/ 10/ 12 1019.4
GRAND ISLE       2300   56 61  350/ 14/ 20 1021.2
SOUTHWEST PASS   2300   58                 1022.0
NEW CANAL        2300   55 55   10/ 10/ 12 1020.6
SHELL BEACH      2300   55 54  330/ 15/ 18 1020.5

OFFSHORE STATIONS

STATION/POSITION TIME  TEMP    WIND        PRES    WAVE
                       AIR SEA DIR/SP/G            HT/PER
                 (UTC) (F)     (DEG/KT/KT) (MB)    (FT/S)
64 S DAUPHIN ISL 2200   61 72  340/ 19/ 27 1019.5    6/ 6

$$




USA.gov is the U.S. government's official web portal to all federal, state and local government web resources and services.